Farmville, Virginia, United States (23901)
Lat: 37.30N, Lon: 78.39W
Wx Zone: VAZ060
Local Info
Past Weather Observations for Yesterday

NOTE: This archive is for the closest National Weather Service station to Farmville. Information may differ from the station used for current weather conditions.

Click here for Long-term Archive

Time Weather Temperature Dewpoint Humidity Pressure Winds Precip Visibility
23:55
Clear
72°F / 22°C 72°F / 22°C 100% N/A Calm - 7SM
23:35
Clear
73°F / 23°C 72°F / 22°C 94% 30.09 in
(1019 mb)
Calm - 10SM
23:15
Clear
73°F / 23°C 72°F / 22°C 94% 30.09 in
(1019 mb)
Calm - 10SM
22:55
Clear
73°F / 23°C 73°F / 23°C 100% 30.09 in
(1019 mb)
Calm - 10SM
22:35
Clear
75°F / 24°C 73°F / 23°C 94% 30.09 in
(1019 mb)
Calm - 10SM
22:15
Partly Cloudy
75°F / 24°C 73°F / 23°C 94% 30.09 in
(1019 mb)
Calm - 10SM
21:55
Mostly Cloudy
75°F / 24°C 72°F / 22°C 89% 30.09 in
(1019 mb)
Calm - 10SM
21:35
Mostly Cloudy
75°F / 24°C 72°F / 22°C 89% 30.09 in
(1019 mb)
Calm - 10SM
21:15
Partly Cloudy
75°F / 24°C 72°F / 22°C 89% 30.09 in
(1019 mb)
SSE 4.6 mph
(SSE 7 kph)
- 10SM
20:55
Clear
75°F / 24°C 70°F / 21°C 83% 30.09 in
(1019 mb)
Calm - 10SM
20:35
Clear
77°F / 25°C 70°F / 21°C 79% 30.09 in
(1019 mb)
Calm - 10SM
20:15
Clear
77°F / 25°C 70°F / 21°C 79% 30.09 in
(1019 mb)
Calm - 7SM
19:55
Clear
79°F / 26°C 70°F / 21°C 74% 30.09 in
(1019 mb)
Calm - 10SM
19:35
Clear
79°F / 26°C 70°F / 21°C 74% 30.06 in
(1018 mb)
Calm - 10SM
19:15
Clear
81°F / 27°C 68°F / 20°C 66% 30.06 in
(1018 mb)
S 3.5 mph
(S 6 kph)
- 10SM
18:55
Partly Cloudy
82°F / 28°C 68°F / 20°C 62% 30.06 in
(1018 mb)
Calm - 10SM
18:35
Partly Cloudy
82°F / 28°C 68°F / 20°C 62% 30.06 in
(1018 mb)
SE 3.5 mph
(SE 6 kph)
- 10SM
18:15
Partly Cloudy
84°F / 29°C 66°F / 19°C 55% 30.09 in
(1019 mb)
SSE 4.6 mph
(SSE 7 kph)
- 10SM
17:55
Clear
86°F / 30°C 68°F / 20°C 55% 30.09 in
(1019 mb)
SSE 5.8 mph
(SSE 9 kph)
- 10SM
17:35
Partly Cloudy
88°F / 31°C 66°F / 19°C 49% 30.09 in
(1019 mb)
Calm - 10SM
17:15
Partly Cloudy
86°F / 30°C 68°F / 20°C 55% 30.09 in
(1019 mb)
S 5.8 mph
(S 9 kph)
- 10SM
16:55
Partly Cloudy
88°F / 31°C 66°F / 19°C 49% 30.09 in
(1019 mb)
S 5.8 mph
(S 9 kph)
- 10SM
16:35
Mostly Cloudy
88°F / 31°C 68°F / 20°C 52% 30.09 in
(1019 mb)
SSE 4.6 mph
(SSE 7 kph)
- 10SM
16:15
Mostly Cloudy
88°F / 31°C 70°F / 21°C 55% 30.09 in
(1019 mb)
SW 6.9 mph
(SW 11 kph)
- 10SM
15:55
Partly Cloudy
84°F / 29°C 66°F / 19°C 55% 30.09 in
(1019 mb)
Calm - 10SM
15:35
Mostly Cloudy
86°F / 30°C 66°F / 19°C 52% 30.09 in
(1019 mb)
Calm - 10SM
15:15
Mostly Cloudy
84°F / 29°C 66°F / 19°C 55% 30.09 in
(1019 mb)
S 3.5 mph
(S 6 kph)
- 10SM
14:55
Mostly Cloudy
86°F / 30°C 68°F / 20°C 55% 30.09 in
(1019 mb)
S 3.5 mph
(S 6 kph)
- 10SM
14:35
Overcast
84°F / 29°C 68°F / 20°C 58% 30.12 in
(1020 mb)
Calm - 10SM
14:15
Mostly Cloudy
82°F / 28°C 68°F / 20°C 62% 30.12 in
(1020 mb)
SSE 3.5 mph
(SSE 6 kph)
- 10SM
13:55
Partly Cloudy
84°F / 29°C 70°F / 21°C 62% 30.12 in
(1020 mb)
S 9.2 mph
(S 15 kph)
- 10SM
13:35
Mostly Cloudy
88°F / 31°C 68°F / 20°C 52% N/A SSE 6.9 mph
(SSE 11 kph)
- 10SM
13:15
Overcast
84°F / 29°C 70°F / 21°C 62% 30.12 in
(1020 mb)
ENE 4.6 mph
(ENE 7 kph)
- 10SM
12:55
Overcast
82°F / 28°C 68°F / 20°C 62% 30.12 in
(1020 mb)
Calm - 10SM
12:35
Mostly Cloudy
82°F / 28°C 66°F / 19°C 58% 30.15 in
(1021 mb)
SSE 4.6 mph
(SSE 7 kph)
- 10SM
12:15
Mostly Cloudy
84°F / 29°C 66°F / 19°C 55% 30.15 in
(1021 mb)
SSE 4.6 mph
(SSE 7 kph)
- 10SM
11:55
Mostly Cloudy
82°F / 28°C 66°F / 19°C 58% 30.15 in
(1021 mb)
SE 3.5 mph
(SE 6 kph)
- 10SM
11:35
Mostly Cloudy
82°F / 28°C 68°F / 20°C 62% 30.15 in
(1021 mb)
Calm - 10SM
11:15
Mostly Cloudy
82°F / 28°C 68°F / 20°C 62% 30.15 in
(1021 mb)
SW 3.5 mph
(SW 6 kph)
- 10SM
10:55
Partly Cloudy
82°F / 28°C 68°F / 20°C 62% 30.15 in
(1021 mb)
ENE 3.5 mph
(ENE 6 kph)
- 10SM
10:35
Overcast
79°F / 26°C 70°F / 21°C 74% 30.18 in
(1022 mb)
SSE 3.5 mph
(SSE 6 kph)
- 10SM
10:15
Overcast
79°F / 26°C 70°F / 21°C 74% 30.18 in
(1022 mb)
SE 4.6 mph
(SE 7 kph)
- 10SM
09:55
Overcast
79°F / 26°C 70°F / 21°C 74% 30.18 in
(1022 mb)
Calm - 10SM
09:35
Overcast
77°F / 25°C 73°F / 23°C 89% 30.18 in
(1022 mb)
Calm - 10SM
09:15
Overcast
75°F / 24°C 73°F / 23°C 94% 30.18 in
(1022 mb)
SSE 4.6 mph
(SSE 7 kph)
- 10SM
08:55
Overcast
75°F / 24°C 73°F / 23°C 94% 30.18 in
(1022 mb)
Calm - 10SM
08:35
Overcast
75°F / 24°C 73°F / 23°C 94% 30.18 in
(1022 mb)
S 3.5 mph
(S 6 kph)
- 10SM
08:15
Overcast
75°F / 24°C 73°F / 23°C 94% 30.18 in
(1022 mb)
Calm - 10SM
07:55
Overcast
73°F / 23°C 73°F / 23°C 100% 30.18 in
(1022 mb)
Calm - 10SM
07:35
Overcast
73°F / 23°C 73°F / 23°C 100% 30.18 in
(1022 mb)
Calm - 10SM
07:15
Overcast
73°F / 23°C 73°F / 23°C 100% 30.18 in
(1022 mb)
Calm - 10SM
06:55
Overcast
73°F / 23°C 72°F / 22°C 94% 30.18 in
(1022 mb)
Calm - 7SM
06:35
Overcast
73°F / 23°C 72°F / 22°C 94% 30.18 in
(1022 mb)
Calm - 7SM
05:15
Overcast
Fog And Mist
72°F / 22°C 72°F / 22°C 100% 30.15 in
(1021 mb)
Calm - 4SM
04:55
Overcast
Fog And Mist
72°F / 22°C 72°F / 22°C 100% 30.15 in
(1021 mb)
Calm - 5SM
04:35
Overcast
72°F / 22°C 72°F / 22°C 100% 30.15 in
(1021 mb)
SSE 3.5 mph
(SSE 6 kph)
- 7SM
04:15
Overcast
72°F / 22°C 72°F / 22°C 100% 30.15 in
(1021 mb)
Calm - 7SM
03:55
Overcast
72°F / 22°C 72°F / 22°C 100% 30.15 in
(1021 mb)
Calm - 7SM
03:35
Overcast
72°F / 22°C 72°F / 22°C 100% 30.15 in
(1021 mb)
Calm - 7SM
03:15
Overcast
72°F / 22°C 72°F / 22°C 100% 30.15 in
(1021 mb)
Calm - 7SM
02:55
Overcast
72°F / 22°C 72°F / 22°C 100% 30.15 in
(1021 mb)
Calm - 7SM
02:35
Overcast
72°F / 22°C 72°F / 22°C 100% 30.15 in
(1021 mb)
Calm - 7SM
02:15
Overcast
73°F / 23°C 72°F / 22°C 94% 30.15 in
(1021 mb)
Calm - 10SM
01:55
Overcast
73°F / 23°C 72°F / 22°C 94% 30.15 in
(1021 mb)
Calm - 10SM
01:35
Overcast
73°F / 23°C 72°F / 22°C 94% 30.15 in
(1021 mb)
Calm - 10SM
01:15
Overcast
73°F / 23°C 72°F / 22°C 94% 30.15 in
(1021 mb)
Calm - 10SM
00:55
Overcast
73°F / 23°C 73°F / 23°C 100% 30.15 in
(1021 mb)
Calm - 10SM
00:35
Overcast
73°F / 23°C 73°F / 23°C 100% 30.15 in
(1021 mb)
Calm - 10SM
00:15
Overcast
73°F / 23°C 72°F / 22°C 94% 30.15 in
(1021 mb)
Calm - 10SM
Time Weather Temperature Dewpoint Humidity Pressure Winds Precip Visibility


Weather for websites

WeatherForYou.com, LLC is not responsible for any damages or problems caused by this service. Current weather conditions are obtained from the closest station including government and personal stations which may have varying degrees of accuracy. Weather forecasts are derived from the NOAA NDFD. Like all things, this site belongs to Jesus Christ... He just trusts me to maintain it. If you have any questions or comments email webmaster@weatherforyou.com

Copyright © 2014, WeatherForYou.com LLC. All rights reserved.